Regional Weather Roundup
Issued by NWS Binghamton, NY

Home | Current Version | Previous Version | Text Only | Print | Product List | Glossary On
Versions: 1 2 3 4 5 6 7 8 9 10 11 12 13 14 15 16 17 18 19 20 21 22 23 24 25 26 27
000
ASUS41 KBGM 261410
RWRBGM

REGIONAL WEATHER ROUNDUP
NATIONAL WEATHER SERVICE BINGHAMTON NY
1000 AM EDT WED APR 26 2017

Note: "fair" indicates few or no clouds below 12,000 feet with no
significant weather and/or obstructions to visibility.

* = Station(s) that does not report precipitation, such as rain,
snow, etc, also no thunder or fog.

NYZ009-015>018-022>025-036-037-044>046-055>057-062-261500
...Central New York...

CITY           SKY/WX    TMP DP  RH WIND       PRES   REMARKS
Binghamton     CLOUDY    58  53  84 VRB5      29.80S
Cortland       CLOUDY    57  52  82 CALM      29.81S
Dansville      CLOUDY    60  52  74 VRB5      29.82R
Elmira         CLOUDY    59  52  77 CALM      29.79F
Seneca Falls   CLOUDY    61  52  72 CALM      29.83R
Ithaca         MOSUNNY   61  53  75 VRB6      29.81S
Hamilton       CLOUDY    57  48  72 CALM      29.83F
Monticello     CLOUDY    55  55 100 MISG      29.81R
Norwich        MOSUNNY   59  50  72 N6        29.82F
Penn Yan       CLOUDY    58  51  78 CALM      29.81S
Rome           CLOUDY    57  52  83 SE9       29.85S
Sidney         SUNNY     57  52  82 N5        29.81F
Syracuse       CLOUDY    60  52  74 E9        29.81F
$$

PAZ038>040-043-044-047-048-072-261500
...Northeast Pennsylvania...

CITY           SKY/WX    TMP DP  RH WIND       PRES   REMARKS
Scranton       CLOUDY    61  52  72 NE9       29.78F
$$
&&
KEY
WCI = Wind Chill Index
VSB = Visibility
HX  = Heat Index
$$




USA.gov is the U.S. government's official web portal to all federal, state and local government web resources and services.